Lapse_Rate
8.0 8.2 8.5 8.5 8.7 8.9 8.9 9.1 8.9 9.1 8.3 5.3 5.9 5.3 5.4 5.8 5.9 7.5 9.2 9.4 9.5 9.6 9.7 9.7 9.6 9.6 9.3 8.4 7.9 8.5 9.0 8.5 8.0
7.7 8.1 8.3 8.4 8.8 8.8 8.9 9.1 9.0 9.1 8.9 6.4 6.2 6.3 5.6 5.6 5.9 6.3 9.2 9.1 9.4 9.7 9.5 9.8 9.4 9.5 9.3 9.3 9.1 7.7 7.8 9.3 9.2
7.7 8.0 8.2 8.4 8.7 9.0 9.1 9.3 9.3 9.3 9.3 8.4 8.4 7.9 7.2 6.7 6.6 6.2 7.0 8.4 7.2 8.5 9.3 8.9 8.8 8.8 8.8 9.2 9.3 9.0 7.6 8.0 9.0
7.8 8.0 8.3 8.5 8.6 9.0 9.1 9.3 9.4 9.2 9.3 9.2 9.1 8.7 9.3 9.0 9.1 9.0 6.4 7.0 6.8 6.2 7.4 8.9 7.1 7.1 7.6 8.7 8.9 8.6 8.0 7.4 7.7
8.0 8.2 8.3 8.6 8.7 8.9 9.1 9.1 9.4 9.3 9.3 9.5 9.5 9.4 8.8 8.8 8.1 9.0 9.5 6.1 7.1 6.6 6.2 7.1 7.1 7.1 7.4 7.4 7.6 8.4 8.9 8.7 8.9
7.9 8.2 8.3 8.7 8.8 8.7 8.9 9.0 9.0 9.2 9.3 9.3 9.6 9.3 9.2 8.1 9.0 9.3 9.2 9.4 7.2 7.6 8.3 6.9 8.1 8.2 7.7 7.1 6.8 7.2 7.5 8.4 8.9
8.0 8.1 8.2 8.6 8.7 8.7 8.6 8.6 8.5 7.6 8.9 9.3 8.6 9.4 9.3 9.0 8.8 9.3 9.6 9.4 8.8 9.1 8.8 8.3 6.9 3.4 2.9 2.3 5.1 6.5 6.9 7.3 7.5
7.9 8.1 8.3 8.6 8.7 8.7 8.7 8.2 7.6 6.3 7.0 8.7 9.3 8.3 9.2 9.1 9.2 9.3 8.9 8.1 8.5 7.6 7.8 3.1 0.1 0.7 -0.3 1.6 4.0 4.8 6.5 6.4 7.1
7.8 8.0 8.2 8.3 8.3 8.4 8.5 8.6 8.3 6.7 6.4 7.8 8.0 8.8 8.9 9.0 7.9 6.3 6.3 7.3 7.1 7.4 5.4 2.3 0.1 -0.8 -1.0 -1.3 -0.6 1.7 3.0 4.4 5.8
7.9 8.2 8.3 8.4 7.4 4.5 4.7 7.7 4.8 8.9 9.0 8.9 7.3 7.1 7.3 6.7 6.1 5.5 5.4 6.3 6.5 6.3 2.8 1.6 0.4 -0.1 0.6 0.6 1.3 1.3 1.6 1.0 3.3
8.1 8.3 8.3 8.3 8.2 3.1 4.9 6.7 7.5 9.0 6.6 6.5 7.3 8.1 7.8 7.0 5.8 5.7 5.5 5.9 6.9 6.5 0.9 0.7 2.1 2.2 2.0 1.6 2.0 2.3 0.6 0.1 2.3
8.5 8.6 8.9 8.8 8.6 8.8 8.8 6.8 9.1 7.8 6.8 5.5 4.7 5.0 5.5 5.3 6.6 7.1 6.1 6.2 7.6 6.7 1.8 0.8 0.9 2.1 2.4 1.1 3.0 0.8 -0.4 0.2 3.9
8.7 9.0 9.0 9.0 9.0 9.1 8.3 5.5 7.5 5.9 4.8 3.5 3.1 4.4 5.3 5.5 5.5 6.1 8.3 7.0 6.8 8.0 3.5 2.2 1.6 3.3 4.1 3.7 2.5 2.0 -0.8 0.7 4.9
8.9 9.0 8.9 9.2 9.1 9.0 8.1 5.6 5.2 5.0 4.2 2.8 2.6 3.8 5.0 5.4 5.2 5.4 8.6 7.7 7.6 7.4 4.5 3.2 2.6 5.7 5.3 4.0 3.5 4.6 -1.3 -1.4 3.4
8.7 8.7 8.7 8.9 8.9 8.8 7.2 6.4 5.8 5.9 6.7 4.7 4.4 4.5 5.7 6.2 6.0 6.9 6.8 5.2 6.8 6.9 6.0 6.1 5.4 4.5 5.0 5.3 5.2 1.1 0.3 -1.8 -0.9
8.6 8.6 8.3 7.7 6.3 8.8 8.1 6.1 6.9 8.0 8.4 7.1 5.5 5.3 5.9 6.4 6.7 9.0 6.8 6.7 5.3 7.9 8.2 7.4 7.8 8.0 8.6 8.2 9.0 7.1 -0.4 -1.6 -1.2
8.7 8.8 8.8 9.0 8.9 8.7 8.7 7.1 8.8 9.1 8.7 9.0 7.3 6.4 6.5 8.9 9.1 7.9 9.2 9.4 9.6 9.3 9.2 7.3 6.9 6.5 7.1 8.5 8.7 9.2 9.2 8.5 5.7
8.8 8.9 9.0 9.0 9.0 9.0 8.9 9.0 9.1 9.4 9.4 9.1 8.9 9.0 9.2 9.2 9.5 9.2 9.1 9.4 9.5 9.4 9.4 7.0 8.1 7.1 6.2 8.3 8.9 6.1 1.0 3.3 7.3
8.9 8.9 9.1 9.1 9.0 9.1 9.1 9.2 9.2 9.1 8.7 9.2 7.9 9.0 9.5 9.3 9.6 9.5 9.6 9.4 9.5 4.6 1.9 0.4 -2.3 -2.7 1.0 5.9 3.1 1.1 -1.1 -2.9 -2.6
8.2 9.0 8.9 9.0 9.0 9.2 9.2 8.9 7.6 8.0 8.8 8.9 8.2 8.7 9.3 9.5 8.8 9.6 9.5 9.4 9.4 9.1 8.5 -0.7 0.4 -2.0 -3.7 -4.2 -2.3 -3.8 -3.7 -4.8 -5.3
Wind_Speed
4 5 5 6 11 13 16 18 18 18 15 15 17 16 17 14 14 10 10 11 9 8 9 8 9 9 11 11 11 10 10 8 8
5 6 4 4 9 11 12 15 17 18 14 14 15 16 13 13 13 14 11 12 10 10 10 9 9 9 11 11 11 11 10 9 10
6 7 4 3 8 10 11 12 13 15 16 14 11 12 13 12 14 14 13 11 12 12 11 11 10 9 10 10 11 11 11 11 10
8 8 5 4 6 9 10 11 11 12 13 14 13 13 13 14 13 14 13 12 13 13 12 11 11 10 10 10 11 11 11 11 11
7 8 8 9 9 9 9 9 10 11 11 13 13 13 12 12 12 12 13 13 14 12 12 11 10 10 10 10 11 11 12 12 11
7 9 9 10 11 9 8 7 7 8 9 9 10 10 11 12 12 13 13 12 13 12 11 10 9 8 7 11 11 11 12 13 12
9 10 9 9 9 7 5 4 3 3 5 6 8 8 10 10 11 11 11 11 11 9 8 7 2 14 15 19 21 11 12 12 13
10 12 13 12 12 10 10 9 7 2 5 5 6 6 7 7 6 6 8 8 8 8 6 12 9 11 8 10 16 11 11 11 14
11 12 14 12 13 13 16 14 12 10 4 3 4 4 4 2 3 5 6 5 7 8 11 13 9 9 14 18 16 15 10 10 10
12 13 12 12 6 10 15 11 15 14 9 7 5 3 2 1 2 4 6 5 6 8 14 14 13 13 14 15 8 11 15 17 8
12 12 12 12 13 16 12 13 12 8 11 11 10 9 8 6 4 4 5 5 7 8 12 14 13 15 18 12 7 6 12 20 12
11 11 11 10 11 11 7 10 7 9 10 11 12 13 11 9 7 5 5 5 5 6 9 10 12 15 15 12 11 10 9 11 12
10 10 10 9 9 9 10 10 10 10 11 12 13 13 12 12 11 9 6 6 6 4 10 11 11 16 16 15 13 9 9 10 9
8 8 9 9 8 9 10 11 12 11 11 12 12 12 12 11 11 10 8 8 6 4 7 9 11 16 14 13 11 11 10 13 9
6 7 8 10 9 9 9 11 11 11 11 12 12 12 11 11 11 9 8 10 8 5 5 7 10 11 11 9 10 11 9 11 14
6 8 8 9 9 10 9 10 11 11 12 12 12 12 11 11 12 10 10 9 8 7 6 6 8 8 9 8 6 7 13 11 13
6 7 7 8 7 8 10 11 10 11 13 13 13 13 13 11 11 10 10 9 6 7 7 5 6 9 7 4 2 5 7 6 7
7 7 8 8 9 10 10 11 12 13 14 15 15 14 13 12 10 10 10 8 8 8 8 6 8 6 5 7 8 3 4 6 7
6 7 8 9 10 10 11 12 12 13 14 15 15 15 11 10 10 10 9 8 9 5 9 9 9 11 8 7 11 10 13 10 10
6 8 9 10 10 10 11 13 14 13 15 14 13 13 13 11 10 9 9 9 9 10 8 12 11 11 13 14 13 11 11 11 8
Wind_Direction
30 17 73 158 185 194 193 194 205 204 203 206 207 207 213 213 216 222 222 222 245 234 240 238 235 222 238 226 232 229 223 220 235
30 13 31 152 178 188 190 193 201 208 196 203 203 206 212 215 217 224 221 225 217 231 239 248 236 237 235 237 230 232 230 237 231
356 10 16 125 167 177 185 195 199 209 206 212 209 217 211 218 218 219 226 223 226 232 235 230 249 234 240 246 245 244 232 238 232
16 15 50 107 145 158 172 181 191 200 212 213 215 215 221 217 218 219 213 222 224 227 235 231 227 232 237 241 250 251 249 241 254
43 57 74 93 116 141 155 171 184 188 205 211 217 220 220 226 227 228 215 221 229 228 227 227 229 232 234 241 244 247 248 248 241
80 82 78 95 108 123 137 152 170 180 198 221 213 207 218 226 226 225 235 233 227 231 230 232 228 232 264 293 257 253 250 247 246
100 94 79 82 83 74 92 115 144 206 221 212 220 223 216 224 227 237 238 233 234 235 228 229 26 52 4 335 311 290 272 259 254
97 85 74 61 51 50 46 60 49 343 255 234 234 216 239 236 251 253 243 244 235 225 211 121 154 145 158 272 267 250 242 249 256
96 84 74 65 64 54 36 27 36 24 15 213 225 229 253 294 258 250 250 242 235 198 162 165 175 170 191 218 222 228 195 236 252
91 79 66 62 54 66 56 10 34 17 27 56 81 77 34 358 270 252 249 232 210 184 176 180 189 197 207 242 248 204 211 207 202
87 77 69 60 46 37 40 22 26 20 41 34 37 41 41 31 356 296 270 233 224 176 183 186 197 217 226 252 273 239 242 226 203
79 77 72 70 60 53 50 45 10 29 34 38 33 24 14 10 359 343 312 280 241 205 176 197 205 217 228 248 264 262 215 235 233
79 63 55 53 49 44 39 21 9 18 23 32 21 6 359 353 357 341 316 303 284 214 190 202 208 228 237 253 270 255 226 213 245
72 52 38 15 25 25 16 5 2 6 6 15 4 351 346 347 349 335 331 314 291 261 195 206 213 234 249 260 250 261 218 202 229
51 30 18 6 358 358 4 2 355 354 358 348 344 340 337 338 338 337 347 331 319 300 260 249 233 240 244 245 252 241 239 207 218
29 14 10 359 1 343 353 7 354 349 346 337 332 332 335 331 329 332 331 329 329 314 285 259 279 255 257 243 221 236 201 204 223
25 16 7 358 346 354 1 4 352 352 351 342 336 340 331 322 316 339 328 320 316 310 307 350 333 344 318 308 273 283 269 211 220
19 7 3 2 355 358 356 349 354 357 346 351 351 343 329 322 324 321 313 307 326 314 313 347 316 315 322 320 302 25 330 340 302
15 11 3 359 354 352 347 349 349 360 353 353 353 336 331 332 323 313 313 320 312 240 227 248 218 244 250 288 272 265 274 259 257
12 8 10 5 352 349 347 8 353 347 344 341 336 324 327 324 309 325 320 318 312 313 295 213 232 219 217 226 265 283 277 283 295